Weather History for Tampa Macdill AFB, FL

Change the Weather History Date:

Wednesday, December 12, 2012

  Actual Average Record
Temperature  
Mean Temperature 75 °F -  
Max Temperature 82 °F 70 °F 86 °F (1998)
Min Temperature 68 °F 53 °F 44 °F (2004)
Cooling Degree Days 10    
Growing Degree Days 25 (Base 50)    
Moisture  
Dew Point 71 °F    
Average Humidity 97    
Maximum Humidity 100    
Minimum Humidity 75    
Precipitation  
Precipitation 0.01 in - - ()
Sea Level Pressure  
Sea Level Pressure 30.04 in    
Wind  
Wind Speed 3 mph (West)    
Max Wind Speed 12 mph    
Max Gust Speed -    
Visibility 9 miles    
Events Rain    
Averages and records for this station are not official NWS values.
T = Trace of Precipitation, MM = Missing Value Source: NWS Daily Summary

Daily Weather History Graph

Daily Weather History Graph

Search for Another Location

Airport:

Trip Planner

Search our weather history database for the weather conditions in past years. The results will help you decide how hot, cold, wet, or windy it might be!

Date:

Astronomy

Dec. 12, 2012 Rise Set
Actual Time 7:11 AM EST 5:36 PM EST
Civil Twilight 6:46 AM EST 6:01 PM EST
Nautical Twilight 6:17 AM EST 6:31 PM EST
Astronomical Twilight 5:48 AM EST 6:59 PM EST
Moon 6:16 AM EST (12/12) 5:10 PM EST (12/12)
Length of Visible Light 11h 15m
Length of Day
10h 24m
Waning Crescent, 1% of the Moon is Illuminated
Dec 12
Waning Crescent
Dec 13
New
Dec 20
First Quarter
Dec 28
Full
Jan 4
Last Quarter

Hourly Weather History & Observations

Time (EST) Temp. Heat Index Dew Point Humidity Pressure Visibility Wind Dir Wind Speed Gust Speed Precip Events Conditions
12:18 AM 71.6 °F - 71.6 °F 100% 30.04 in 10.0 mi Calm Calm - N/A   Mostly Cloudy
12:50 AM 71.6 °F - 71.6 °F 100% 30.04 in 10.0 mi Calm Calm - N/A   Mostly Cloudy
12:55 AM 71.1 °F - 71.1 °F 100% 30.04 in 10.0 mi Calm Calm - N/A   Mostly Cloudy
1:12 AM 71.6 °F - 71.6 °F 100% 30.04 in 10.0 mi Calm Calm - N/A   Scattered Clouds
1:13 AM 71.6 °F - 71.6 °F 100% 30.04 in 10.0 mi Calm Calm - N/A Rain Light Rain
1:15 AM 71.6 °F - 71.6 °F 100% 30.04 in 9.0 mi Calm Calm - N/A Rain Light Rain
1:23 AM 71.6 °F - 71.6 °F 100% 30.04 in 5.0 mi Calm Calm - N/A Rain Light Rain
1:24 AM 71.6 °F - 71.6 °F 100% 30.04 in 5.0 mi Calm Calm - N/A Rain Light Rain
1:30 AM 71.6 °F - 71.6 °F 100% 30.04 in 8.0 mi SSW 5.8 mph - N/A Rain Light Rain
1:33 AM 71.6 °F - 71.6 °F 100% 30.04 in 10.0 mi SW 5.8 mph - N/A   Mostly Cloudy
1:55 AM 71.1 °F - 71.1 °F 100% 30.03 in 10.0 mi Calm Calm - 0.01 in   Overcast
2:21 AM 71.6 °F - 71.6 °F 100% 30.02 in 10.0 mi Calm Calm - N/A   Overcast
2:27 AM 71.6 °F - 71.6 °F 100% 30.01 in 4.0 mi Calm Calm - N/A   Overcast
2:30 AM 71.6 °F - 71.6 °F 100% 30.01 in 4.0 mi Calm Calm - N/A   Overcast
2:33 AM 69.8 °F - 69.8 °F 100% 30.01 in 4.0 mi Calm Calm - N/A   Overcast
2:47 AM 69.8 °F - 69.8 °F 100% 30.00 in 8.0 mi South 4.6 mph - N/A   Overcast
2:49 AM 69.8 °F - 69.8 °F 100% 30.00 in 8.0 mi South 4.6 mph - N/A   Overcast
2:55 AM 70.5 °F - 70.3 °F 99% 30.00 in 8.0 mi South 3.5 mph - N/A   Overcast
3:21 AM 69.8 °F - 69.8 °F 100% 30.00 in 6.0 mi Calm Calm - N/A   Overcast
3:27 AM 69.8 °F - 69.8 °F 100% 30.00 in 5.0 mi Calm Calm - N/A   Overcast
3:55 AM 70.2 °F - 70.2 °F 100% 30.00 in 5.0 mi Calm Calm - N/A   Overcast
3:57 AM 69.8 °F - 69.8 °F 100% 30.00 in 6.0 mi Calm Calm - N/A   Overcast
3:59 AM 69.8 °F - 69.8 °F 100% 30.00 in 6.0 mi Calm Calm - N/A   Overcast
4:02 AM 69.8 °F - 69.8 °F 100% 30.00 in 6.0 mi Calm Calm - N/A   Overcast
4:10 AM 71.6 °F - 71.6 °F 100% 30.00 in 5.0 mi SE 3.5 mph - N/A   Overcast
4:14 AM 71.6 °F - 71.6 °F 100% 30.01 in 7.0 mi South 3.5 mph - N/A   Overcast
4:23 AM 71.6 °F - 71.6 °F 100% 30.01 in 10.0 mi Calm Calm - N/A   Overcast
4:27 AM 71.6 °F - 71.6 °F 100% 30.01 in 10.0 mi SW 3.5 mph - N/A   Overcast
4:42 AM 71.6 °F - 71.6 °F 100% 30.01 in 10.0 mi SW 3.5 mph - N/A   Mostly Cloudy
4:44 AM 71.6 °F - 71.6 °F 100% 30.01 in 10.0 mi SW 4.6 mph - N/A   Mostly Cloudy
4:55 AM 70.9 °F - 70.9 °F 100% 30.01 in 10.0 mi SW 4.6 mph - N/A   Mostly Cloudy
4:57 AM 71.6 °F - 71.6 °F 100% 30.01 in 10.0 mi SW 5.8 mph - N/A   Mostly Cloudy
4:59 AM 71.6 °F - 71.6 °F 100% 30.01 in 10.0 mi SW 4.6 mph - N/A   Mostly Cloudy
5:01 AM 71.6 °F - 71.6 °F 100% 30.01 in 10.0 mi SSW 4.6 mph - N/A   Mostly Cloudy
5:02 AM 71.6 °F - 71.6 °F 100% 30.01 in 10.0 mi SSW 5.8 mph - N/A   Mostly Cloudy
5:03 AM 71.6 °F - 71.6 °F 100% 30.01 in 10.0 mi SSW 5.8 mph - N/A   Mostly Cloudy
5:04 AM 71.6 °F - 71.6 °F 100% 30.01 in 10.0 mi SSW 5.8 mph - N/A   Mostly Cloudy
5:05 AM 71.6 °F - 71.6 °F 100% 30.01 in 10.0 mi SSW 5.8 mph - N/A   Scattered Clouds
5:45 AM 69.8 °F - 69.8 °F 100% 30.02 in 8.0 mi SW 6.9 mph - N/A   Clear
5:55 AM 70.3 °F - 70.3 °F 100% 30.02 in 8.0 mi SSW 5.8 mph - N/A   Clear
6:09 AM 69.8 °F - 69.8 °F 100% 30.02 in 8.0 mi SW 4.6 mph - N/A   Clear
6:55 AM 69.3 °F - 69.3 °F 100% 30.04 in 10.0 mi SSW 4.6 mph - N/A   Clear
7:55 AM 68.4 °F - 68.4 °F 100% 30.06 in 10.0 mi SW 4.6 mph - N/A   Clear
8:55 AM 69.4 °F - 69.4 °F 100% 30.08 in 10.0 mi Calm Calm - N/A   Scattered Clouds
9:55 AM 73.6 °F - 72.1 °F 95% 30.08 in 10.0 mi SW 10.4 mph - N/A   Partly Cloudy
10:55 AM 77.2 °F - 73.9 °F 90% 30.08 in 10.0 mi West 6.9 mph - N/A   Clear
11:12 AM 77.0 °F - 73.4 °F 89% 30.08 in 10.0 mi West 8.1 mph - N/A   Mostly Cloudy
11:19 AM 77.0 °F - 73.4 °F 89% 30.08 in 10.0 mi West 8.1 mph - N/A   Scattered Clouds
11:24 AM 77.0 °F - 73.4 °F 89% 30.08 in 10.0 mi West 8.1 mph - N/A   Mostly Cloudy
11:26 AM 77.0 °F - 73.4 °F 89% 30.08 in 10.0 mi West 8.1 mph - N/A   Scattered Clouds
11:55 AM 79.9 °F - 74.8 °F 85% 30.06 in 10.0 mi West 6.9 mph - N/A   Partly Cloudy
12:55 PM 81.9 °F 87.7 °F 74.1 °F 77% 30.03 in 10.0 mi West 8.1 mph - N/A   Partly Cloudy
1:55 PM 82.0 °F 87.7 °F 73.2 °F 75% 30.03 in 10.0 mi West 11.5 mph - N/A   Scattered Clouds
2:55 PM 79.9 °F - 73.0 °F 80% 30.03 in 10.0 mi West 9.2 mph - N/A   Scattered Clouds
3:55 PM 77.0 °F - 72.7 °F 86% 30.04 in 10.0 mi WNW 8.1 mph - N/A   Mostly Cloudy
4:26 PM 75.2 °F - 71.6 °F 89% 30.04 in 10.0 mi WNW 5.8 mph - N/A   Mostly Cloudy
4:29 PM 75.2 °F - 71.6 °F 89% 30.04 in 10.0 mi WNW 5.8 mph - N/A   Mostly Cloudy
4:32 PM 75.2 °F - 71.6 °F 89% 30.04 in 10.0 mi WNW 5.8 mph - N/A   Light Drizzle
4:42 PM 75.2 °F - 73.4 °F 94% 30.04 in 10.0 mi WNW 8.1 mph - N/A   Mostly Cloudy
4:55 PM 75.0 °F - 72.9 °F 93% 30.04 in 10.0 mi WNW 8.1 mph - 0.00 in   Partly Cloudy
5:55 PM 73.0 °F - 72.1 °F 97% 30.04 in 10.0 mi NW 4.6 mph - N/A   Partly Cloudy
6:27 PM 73.4 °F - 73.4 °F 100% 30.04 in 10.0 mi North 5.8 mph - N/A   Mostly Cloudy
6:31 PM 71.6 °F - 71.6 °F 100% 30.04 in 10.0 mi North 8.1 mph - N/A   Mostly Cloudy
6:50 PM 71.6 °F - 71.6 °F 100% 30.04 in 10.0 mi NE 5.8 mph - N/A   Scattered Clouds
6:55 PM 71.1 °F - 70.7 °F 99% 30.04 in 10.0 mi NE 4.6 mph - N/A   Scattered Clouds
7:55 PM 70.2 °F - 70.2 °F 100% 30.06 in 10.0 mi NNE 3.5 mph - N/A   Scattered Clouds
8:55 PM 69.3 °F - 69.3 °F 100% 30.07 in 10.0 mi NNE 6.9 mph - N/A   Scattered Clouds
8:57 PM 69.8 °F - 69.8 °F 100% 30.07 in 10.0 mi NNE 6.9 mph - N/A   Mostly Cloudy
9:20 PM 69.8 °F - 69.8 °F 100% 30.08 in 10.0 mi NE 4.6 mph - N/A   Overcast
9:55 PM 68.4 °F - 68.4 °F 100% 30.08 in 10.0 mi Calm Calm - N/A   Overcast
10:12 PM 68.0 °F - 68.0 °F 100% 30.08 in 10.0 mi North 3.5 mph - N/A   Overcast
10:33 PM 68.0 °F - 68.0 °F 100% 30.09 in 10.0 mi NNW 3.5 mph - N/A   Overcast
10:55 PM 68.5 °F - 68.5 °F 100% 30.10 in 10.0 mi North 3.5 mph - N/A   Overcast
11:36 PM 68.0 °F - 68.0 °F 100% 30.09 in 8.0 mi North 3.5 mph - N/A   Overcast
11:37 PM 68.0 °F - 68.0 °F 100% 30.09 in 8.0 mi NNW 3.5 mph - N/A   Overcast
11:55 PM 68.2 °F - 68.2 °F 100% 30.09 in 5.0 mi NW 5.8 mph - N/A   Overcast
11:56 PM 68.0 °F - 68.0 °F 100% 30.09 in 5.0 mi NW 6.9 mph - N/A   Overcast
11:59 PM 68.0 °F - 68.0 °F 100% 30.09 in 5.0 mi NNW 4.6 mph - N/A   Overcast